Location: Peebles
(55.6412°N, 3.1714°W)
Time: 16:39:56
(UTC+01:00)

ISS - Visible Passes

Search period start: 26 September 2021 00:00
Search period end: 06 October 2021 00:00
Orbit: 417 x 423 km, 51.6° (Epoch: 26 September)

Date Brightness Start Highest point End Pass type
(mag) Time Alt. Az. Time Alt. Az. Time Alt. Az.
26 Sep -3.0 20:01:38 10° WSW 20:04:51 42° S 20:07:19 15° ESE visible
26 Sep -1.9 21:38:18 10° W 21:40:17 25° SW 21:40:17 25° SW visible
27 Sep -2.8 20:51:02 10° W 20:54:08 34° SSW 20:54:48 31° SSE visible
28 Sep -2.8 20:03:53 10° WSW 20:07:03 38° S 20:09:22 16° SE visible
28 Sep -1.4 21:40:52 10° WSW 21:42:21 17° SW 21:42:21 17° SW visible
29 Sep -2.1 20:53:36 10° W 20:56:23 24° SSW 20:57:00 22° S visible
30 Sep -2.3 20:06:29 10° W 20:09:27 29° SSW 20:11:45 14° SE visible
01 Oct -2.4 19:19:27 10° W 19:22:33 34° SSW 19:25:38 10° SE visible
01 Oct -1.3 20:56:50 10° WSW 20:58:44 14° SSW 20:59:36 13° SSW visible
02 Oct -1.5 20:09:32 10° WSW 20:11:58 19° SSW 20:14:24 10° SSE visible
03 Oct -1.7 19:22:29 10° W 19:25:14 23° SSW 19:27:59 10° SSE visible
04 Oct -0.7 20:14:14 10° SW 20:14:35 10° SW 20:14:56 10° SSW visible
05 Oct -1.0 19:26:14 10° WSW 19:28:02 14° SW 19:29:51 10° S visible
